Total_Precipitation_Accumulation
0.71 0.50 0.36 0.34 0.33 0.45 0.36 0.27 0.33 0.40 0.25 0.22 0.31 0.38 0.34 0.15 0.06 0.08 0.21 0.25 0.54 0.45 0.36 0.34 0.41 0.49 0.57 0.51 0.44 0.39 0.47 0.59 0.70
0.89 0.41 0.21 0.25 0.32 0.37 0.41 0.36 0.42 0.44 0.36 0.49 0.56 0.56 0.27 0.07 0.04 0.08 0.15 0.32 0.40 0.38 0.31 0.23 0.26 0.32 0.47 0.57 0.64 0.67 0.56 0.46 0.52
0.71 0.43 0.21 0.25 0.29 0.35 0.36 0.35 0.38 0.36 0.49 0.70 0.51 0.28 0.12 0.06 0.06 0.13 0.16 0.35 0.28 0.28 0.26 0.24 0.23 0.31 0.32 0.38 0.45 0.50 0.54 0.58 0.53
0.66 0.54 0.33 0.32 0.36 0.39 0.32 0.33 0.31 0.27 0.54 0.61 0.30 0.12 0.13 0.11 0.17 0.16 0.34 0.34 0.37 0.39 0.37 0.43 0.40 0.47 0.47 0.43 0.37 0.38 0.38 0.40 0.48
0.81 0.48 0.31 0.44 0.38 0.25 0.22 0.24 0.27 0.27 0.31 0.31 0.16 0.11 0.12 0.10 0.17 0.30 0.47 0.94 0.71 0.63 0.76 0.65 0.63 0.61 0.63 0.82 0.66 0.51 0.48 0.59 0.54
0.60 0.46 0.27 0.33 0.29 0.17 0.16 0.20 0.20 0.12 0.05 0.06 0.06 0.09 0.08 0.16 0.19 0.23 0.40 0.83 0.87 0.94 0.94 0.79 0.66 0.62 0.64 0.68 0.71 0.69 0.76 0.52 0.44
0.61 0.52 0.21 0.22 0.20 0.20 0.15 0.21 0.14 0.09 0.04 0.04 0.05 0.05 0.04 0.04 0.07 0.12 0.29 0.49 0.83 1.15 1.31 1.44 1.00 0.84 0.81 0.90 0.95 1.02 0.98 0.76 0.65
0.66 0.71 0.49 0.29 0.15 0.11 0.14 0.18 0.15 0.05 0.02 0.03 0.04 0.04 0.03 0.03 0.05 0.06 0.21 0.49 0.74 0.95 1.27 1.49 3.29 3.05 2.26 2.36 2.14 1.66 1.40 1.35 1.17
0.39 0.41 0.54 0.33 0.22 0.12 0.10 0.14 0.19 0.16 0.13 0.10 0.08 0.07 0.05 0.04 0.05 0.09 0.25 0.53 0.50 0.55 0.93 0.88 1.46 3.38 3.91 4.08 4.33 3.59 2.90 2.32 1.98
0.60 0.46 0.50 0.40 0.31 0.25 0.15 0.09 0.08 0.10 0.12 0.12 0.14 0.14 0.12 0.10 0.07 0.14 0.25 0.40 0.46 0.39 0.55 0.57 0.65 1.08 1.67 2.66 3.48 3.11 2.59 1.85 1.46
0.48 0.46 0.39 0.33 0.38 0.41 0.31 0.20 0.15 0.12 0.11 0.10 0.09 0.09 0.18 0.21 0.17 0.18 0.34 0.33 0.38 0.46 0.59 0.52 0.62 0.50 0.62 0.82 1.35 1.99 2.63 2.44 1.74
0.94 0.65 0.49 0.35 0.38 0.54 0.48 0.34 0.27 0.22 0.18 0.14 0.11 0.06 0.06 0.15 0.23 0.31 0.36 0.31 0.24 0.26 0.41 0.43 0.66 0.60 0.44 0.60 0.82 0.86 1.06 1.86 2.33
1.44 1.47 1.09 0.76 0.69 0.75 0.69 0.51 0.37 0.25 0.18 0.14 0.14 0.17 0.12 0.09 0.14 0.27 0.38 0.34 0.17 0.11 0.14 0.41 0.86 0.73 0.34 0.51 0.82 1.03 0.94 0.93 1.13
1.09 1.23 1.37 1.36 1.10 0.78 0.95 1.14 1.12 0.80 0.54 0.40 0.34 0.36 0.31 0.17 0.14 0.18 0.31 0.27 0.21 0.16 0.10 0.19 0.59 0.71 0.58 0.39 0.58 1.23 1.31 1.37 1.40
0.98 0.83 0.93 1.24 1.33 1.28 1.16 1.03 1.07 1.27 1.26 1.07 0.89 0.71 0.61 0.48 0.30 0.21 0.29 0.17 0.10 0.09 0.13 0.17 0.22 0.33 0.44 0.47 0.49 1.37 1.67 1.38 1.47
1.13 0.91 0.66 0.62 0.78 0.96 1.14 1.29 1.25 1.18 1.33 1.49 1.29 0.93 0.62 0.39 0.32 0.29 0.39 0.41 0.26 0.20 0.13 0.16 0.18 0.13 0.18 0.27 0.32 0.45 0.93 1.52 1.41
1.37 1.29 1.02 0.73 0.50 0.45 0.55 0.85 1.07 1.14 1.26 1.45 1.25 1.09 0.78 0.49 0.27 0.28 0.27 0.31 0.38 0.33 0.25 0.19 0.24 0.24 0.20 0.15 0.19 0.22 0.38 0.69 1.28
1.00 1.14 1.09 1.02 0.89 0.66 0.48 0.51 0.67 0.73 0.80 1.08 1.24 1.12 0.76 0.42 0.25 0.24 0.20 0.17 0.20 0.26 0.33 0.34 0.31 0.32 0.31 0.22 0.16 0.16 0.18 0.26 0.48
1.43 1.29 1.32 1.14 1.10 1.01 0.90 0.78 0.72 0.88 0.83 0.79 0.87 0.83 0.59 0.51 0.28 0.13 0.23 0.28 0.21 0.18 0.18 0.21 0.27 0.37 0.48 0.47 0.41 0.38 0.40 0.39 0.47
2.10 1.94 1.95 2.02 1.89 1.59 1.37 1.28 1.10 0.99 0.95 0.95 0.83 0.96 0.85 0.71 0.73 0.46 0.17 0.17 0.15 0.14 0.16 0.23 0.31 0.39 0.42 0.43 0.42 0.48 0.51 0.71 0.84